❰ Current Conditions

NWS Regional Weather Roundup - New England Area
REGIONAL WEATHER ROUNDUP
NATIONAL WEATHER SERVICE BOSTON/NORTON MA
600 PM EDT WED OCT 20 2021

NOTE:  "FAIR" INDICATES FEW OR NO CLOUDS BELOW 12,000 FEET WITH NO 
SIGNIFICANT WEATHER AND/OR OBSTRUCTIONS TO VISIBILITY.

MAZALL-202300-
EASTERN MASSACHUSETTS
  
CITY           SKY/WX    TMP DP  RH WIND       PRES   REMARKS
BOSTON         MOCLDY    60  54  80 E8        29.92S                  
BEVERLY        CLEAR     59  52  77 S6        29.92R                  
LAWRENCE       CLEAR     64  51  62 SE7       29.93R                  
BEDFORD        CLEAR     65  56  72 CALM      29.90S                  
BLUE HILL      NOT AVBL                                               
NORWOOD        CLEAR     66  54  65 CALM      29.91S                  
MARSHFIELD     CLEAR     61  54  77 SE5       29.93R                  
PLYMOUTH       CLEAR     62  52  69 CALM      29.93R                  
TAUNTON        CLEAR     61  56  83 CALM      29.92R                  
NEW BEDFORD    CLEAR     65  55  70 S3        29.92R                  
$$

MAZALL-202300-
CAPE COD AND THE ISLANDS
  
CITY           SKY/WX    TMP DP  RH WIND       PRES   REMARKS
FALMOUTH       CLEAR     64  55  72 CALM      29.94R                  
HYANNIS        CLEAR     60  53  77 VRB6      29.94R                  
CHATHAM        CLEAR     59  52  77 VRB3      29.96R                  
PROVINCETOWN   CLEAR     58  52  80 E6        29.94S                  
NANTUCKET      CLEAR     63  57  81 W6        29.95S                  
MARTHAS VNYRD  CLEAR     63  56  78 SW6       29.94R                  
$$
 
MAZALL-202300-
CENTRAL AND WESTERN MASSACHUSETTS
  
CITY           SKY/WX    TMP DP  RH WIND       PRES   REMARKS
WORCESTER      CLEAR     65  50  58 W6        29.95R                  
FITCHBURG      CLEAR     67  48  50 CALM      29.93R                  
ORANGE         CLEAR     64  53  67 CALM      29.93S                  
SPRINGFIELD    MOCLDY    71  46  41 SW8       29.92R                  
WESTFIELD      CLEAR     72  45  37 W9        29.93R                  
NORTH ADAMS    PTCLDY    67  47  48 W10       29.95R                  
PITTSFIELD     PTCLDY    62  46  55 W6        29.96R                  
$$
 
RIZALL-202300-
RHODE ISLAND
  
CITY           SKY/WX    TMP DP  RH WIND       PRES   REMARKS
PROVIDENCE     PTCLDY    70  53  54 SW3       29.94R                  
NEWPORT        CLEAR     67  53  61 CALM      29.94R                  
BLOCK ISLAND   CLEAR     66  55  67 W13       29.96R                  
SMITHFIELD     CLEAR     63  54  72 W3        29.94R                  
WESTERLY       CLEAR     67  58  72 W5        29.95R                  
$$
 
CTZALL-202300-
CONNECTICUT
  
CITY           SKY/WX    TMP DP  RH WIND       PRES   REMARKS
BRADLEY INTL   MOCLDY    70  49  47 SW5       29.94R                  
HARTFORD       PTCLDY    74  47  38 W5        29.93S                  
BRIDGEPORT     CLEAR     71  54  54 W6        29.96R                  
DANBURY        CLEAR     68  51  54 W5        29.98R                  
GROTON         CLEAR     67  56  67 W8        29.95R                  
NEW HAVEN      CLEAR     72  56  57 CALM      29.96R                  
CHESTER        FAIR      66  57  72 VRB3      29.96S                  
MERIDEN        CLEAR     67  53  61 CALM      29.95R                  
WILLIMANTIC    CLEAR     68  50  52 W3        29.95R                  
OXFORD         CLEAR     68  52  56 S3        29.98S                  
$$

MEZ002-015-021-024-NHZ003-005-008-011-012-014-VTZ005-008-202300-
NORTHERN NEW ENGLAND
  
CITY           SKY/WX    TMP DP  RH WIND       PRES   REMARKS
PORTLAND ME    CLEAR     54  45  71 S7        29.92S                  
BANGOR ME      PTCLDY    50  39  66 CALM      29.93R                  
CONCORD NH     CLEAR     62  50  64 S3        29.91R                  
MANCHESTER NH  MOCLDY    70  47  43 VRB3      29.89S                  
NASHUA NH      CLEAR     63  56  78 CALM      29.92R                  
PORTSMOUTH NH  MOCLDY    57  50  78 E8        29.93R                  
JAFFREY NH     CLEAR     65  50  58 CALM      29.94S                  
KEENE NH       CLEAR     62  56  80 S5        29.92S                  
BURLINGTON VT  PTCLDY    63  52  67 N3        29.90R                  
MT. WASHINGTON CLOUDY    34  34  98 W47         N/A  WCI  18          
$$

NYZ052-076-202300-
EASTERN NEW YORK
  
CITY           SKY/WX    TMP DP  RH WIND       PRES   REMARKS
ALBANY         PTCLDY    68  47  46 NW9       29.96R                  
NEW YORK CITY  PTCLDY    77  43  29 W12       29.97S                  
$$
 
ANZALL-202300-
MARINE OBSERVATIONS
  
STATION/POSITION TIME  TEMP    WIND        PRES    VSBY  WAVE
                       AIR SEA DIR/SP/G                  HT/PER
                 (UTC) (F)     (DEG/KT/KT) (MB)    (MI)  (FT/S)
BOSTON BUOY      2140      61  140/ 10/ 14 1013.8R
BUZZARDS BAY     2100          260/ 17/ 19 1014.4F
NANTUCKET SOUND  2150   65 64  200/  8/ 10 1013.8R         1
MASS BAY-STELLWA 2104   58     150/ 12/ 14 1012.6R  1 7/8  1/ 2
ISLE OF SHOALS   2100   57     130/ 15/ 17 1012.2R
S OF BLOCK IS    2126      64                N/A           4/ 7
$$

......................KEY.........................
  SKY/WX - SKY CONDITION/PRESENT WEATHER
  TMP    - TEMPERATURE IN FAHRENHEIT
  DWPT   - DEWPOINT IN FAHRENHEIT
  RH     - RELATIVE HUMIDITY IN PERCENT
  WIND   - DIRECTION AND SPEED IN MPH
  PRES   - MEAN SEA LEVEL PRESSURE IN INCHES OF HG
  WCI    - WIND CHILL INDEX
  VSB    - VISIBILITY IN MILES
  HX     - HEAT INDEX
  TC     - TEMPERATURE IN CELSIUS
  VRB    - VARIABLE WIND DIRECTION
  N/A    - NOT AVAILABLE